#�ϑ�����,���ϕ���,���ϕ���,�ő啗��,�ő啗����������,�ő�u�ԕ���,�ő�u�ԕ�����������
#(�N����),(m/s)   ,(16����),(m/s)   ,(16����)        ,(m/s)       ,(16����)            
2014/2/27 0:01,1.6,3,1.6,3,2.4,3
2014/2/27 0:02,1.5,3,1.6,3,2.5,3
2014/2/27 0:03,1.4,3,1.5,3,2.1,3
2014/2/27 0:04,1.3,3,1.4,3,2.4,2
2014/2/27 0:05,1.3,3,1.4,3,2.7,4
2014/2/27 0:06,1.3,3,1.3,3,2,4
2014/2/27 0:07,1.3,3,1.3,3,1.8,4
2014/2/27 0:08,1.4,3,1.4,3,1.8,3
2014/2/27 0:09,1.3,2,1.4,3,1.1,2
2014/2/27 0:10,1.4,3,1.4,3,2.2,4
2014/2/27 0:11,1.3,3,1.4,3,2.1,3
2014/2/27 0:12,1.3,2,1.3,3,1.8,3
2014/2/27 0:13,1.3,2,1.3,3,2.6,2
2014/2/27 0:14,1.3,2,1.4,3,2.4,1
2014/2/27 0:15,1.3,2,1.3,3,3.3,2
2014/2/27 0:16,1.4,2,1.4,3,3.3,2
2014/2/27 0:17,1.4,2,1.4,3,3.2,1
2014/2/27 0:18,1.5,2,1.5,2,3.3,1
2014/2/27 0:19,1.7,2,1.7,2,3,2
2014/2/27 0:20,1.8,2,1.8,2,3.3,2
2014/2/27 0:21,1.8,2,1.8,2,2.9,1
2014/2/27 0:22,1.8,2,1.8,2,1.6,2
2014/2/27 0:23,1.8,2,1.8,2,2.1,2
2014/2/27 0:24,1.8,2,1.8,2,2.6,1
2014/2/27 0:25,1.7,2,1.8,2,2.1,2
2014/2/27 0:26,1.7,2,1.7,2,2.4,1
2014/2/27 0:27,1.7,2,1.7,2,2.4,1
2014/2/27 0:28,1.7,2,1.7,2,2.5,2
2014/2/27 0:29,1.6,2,1.7,2,2.6,2
2014/2/27 0:30,1.5,2,1.6,2,1.9,2
2014/2/27 0:31,1.4,2,1.5,2,1.5,2
2014/2/27 0:32,1.4,2,1.4,2,1.5,2
2014/2/27 0:33,1.4,2,1.4,2,1.8,3
2014/2/27 0:34,1.3,2,1.4,2,1.4,2
2014/2/27 0:35,1.3,2,1.3,2,2,3
2014/2/27 0:36,1.3,2,1.3,2,2.1,3
2014/2/27 0:37,1.3,2,1.3,2,2.2,4
2014/2/27 0:38,1.3,2,1.3,2,2.7,2
2014/2/27 0:39,1.4,2,1.4,2,3.7,3
2014/2/27 0:40,1.6,2,1.6,2,3.7,3
2014/2/27 0:41,1.7,2,1.7,2,3.6,4
2014/2/27 0:42,1.9,2,1.9,2,3.6,3
2014/2/27 0:43,2,2,2,2,2,2
2014/2/27 0:44,2,2,2,2,2.4,3
2014/2/27 0:45,2,2,2,2,2.6,2
2014/2/27 0:46,2.1,2,2.1,2,2.9,4
2014/2/27 0:47,2.2,2,2.2,2,3.7,3
2014/2/27 0:48,2.2,3,2.2,2,3.8,5
2014/2/27 0:49,2.2,3,2.2,2,3.3,3
2014/2/27 0:50,2.1,3,2.2,2,4.1,4
2014/2/27 0:51,2.1,3,2.1,2,3.2,2
2014/2/27 0:52,2,3,2.1,2,3.5,4
2014/2/27 0:53,2.1,3,2.1,2,3.8,5
2014/2/27 0:54,2.2,4,2.2,2,2.9,4
2014/2/27 0:55,2.2,4,2.2,2,3,3
2014/2/27 0:56,2.2,4,2.2,2,2.2,3
2014/2/27 0:57,2,4,2.2,3,1.9,4
2014/2/27 0:58,1.9,4,2,3,1.8,4
2014/2/27 0:59,1.8,4,1.9,3,1.4,3
2014/2/27 1:00,1.7,4,1.8,3,1.4,4
2014/2/27 1:01,1.5,4,1.6,3,1.1,3
2014/2/27 1:02,1.4,3,1.5,3,1.1,16
2014/2/27 1:03,1.2,3,1.4,3,1.6,1
2014/2/27 1:04,1.1,3,1.2,4,1.8,1
2014/2/27 1:05,0.9,2,1.1,4,0.9,1
2014/2/27 1:06,0.9,2,0.9,4,1.4,2
2014/2/27 1:07,0.9,2,0.9,4,1.4,3
2014/2/27 1:08,0.8,2,0.9,4,1.3,3
2014/2/27 1:09,0.8,2,0.8,4,1.3,3
2014/2/27 1:10,0.8,2,0.8,4,1.5,3
2014/2/27 1:11,0.9,2,0.9,4,1.9,3
2014/2/27 1:12,1,2,1,3,3,3
2014/2/27 1:13,1.1,2,1.1,3,3,2
2014/2/27 1:14,1.2,2,1.2,2,2.2,3
2014/2/27 1:15,1.3,3,1.3,3,2.9,3
2014/2/27 1:16,1.4,3,1.4,3,2.6,3
2014/2/27 1:17,1.4,3,1.4,3,2.4,2
2014/2/27 1:18,1.6,3,1.6,3,3.1,2
2014/2/27 1:19,1.7,3,1.7,3,3.1,3
2014/2/27 1:20,1.8,3,1.8,3,2.6,4
2014/2/27 1:21,1.8,3,1.8,3,2.6,4
2014/2/27 1:22,1.8,3,1.9,3,2.5,3
2014/2/27 1:23,1.8,3,1.8,3,2.7,3
2014/2/27 1:24,1.9,3,1.9,3,3.7,3
2014/2/27 1:25,2,3,2,3,3.2,3
2014/2/27 1:26,2,3,2,3,2.5,2
2014/2/27 1:27,2.1,3,2.1,3,3.8,3
2014/2/27 1:28,2.2,3,2.2,3,3.6,2
2014/2/27 1:29,2.1,3,2.2,3,3.9,4
2014/2/27 1:30,2.2,3,2.2,3,3,3
2014/2/27 1:31,2.2,3,2.2,3,2.9,3
2014/2/27 1:32,2.3,3,2.3,3,3.8,2
2014/2/27 1:33,2.5,3,2.5,3,4.5,3
2014/2/27 1:34,2.6,3,2.6,3,4.8,4
2014/2/27 1:35,2.6,3,2.6,3,4.5,2
2014/2/27 1:36,2.8,3,2.8,3,4.9,3
2014/2/27 1:37,2.9,3,2.9,3,4.5,3
2014/2/27 1:38,2.9,3,2.9,3,4.3,3
2014/2/27 1:39,3.1,3,3.1,3,4.3,3
2014/2/27 1:40,3.2,3,3.2,3,4.5,3
2014/2/27 1:41,3.3,3,3.3,3,4.2,2
2014/2/27 1:42,3.2,3,3.3,3,4.1,2
2014/2/27 1:43,3.1,3,3.2,3,3.7,3
2014/2/27 1:44,3.1,3,3.2,3,4.5,4
2014/2/27 1:45,3,3,3.1,3,4.2,3
2014/2/27 1:46,3,3,3.1,3,4.4,3
2014/2/27 1:47,2.9,3,3,3,4.9,3
2014/2/27 1:48,2.9,3,3,3,4.2,3
2014/2/27 1:49,2.9,3,2.9,3,3.8,3
2014/2/27 1:50,2.8,3,2.9,3,4.3,3
2014/2/27 1:51,2.9,3,2.9,3,4.3,4
2014/2/27 1:52,2.9,3,2.9,3,3,3
2014/2/27 1:53,2.9,3,2.9,3,3.2,3
2014/2/27 1:54,2.9,3,2.9,3,3.8,3
2014/2/27 1:55,3,3,3,3,4.4,4
2014/2/27 1:56,3,3,3,3,4.8,3
2014/2/27 1:57,3.1,3,3.1,3,4.2,3
2014/2/27 1:58,3,3,3.1,3,4.1,3
2014/2/27 1:59,2.9,3,3,3,2.2,4
2014/2/27 2:00,2.8,3,2.9,3,3.1,4
2014/2/27 2:01,2.6,4,2.8,3,2.6,3
2014/2/27 2:02,2.5,4,2.6,3,2.5,4
2014/2/27 2:03,2.5,4,2.5,3,3.2,5
2014/2/27 2:04,2.3,4,2.4,3,3.1,3
2014/2/27 2:05,2.3,4,2.3,3,3.2,3
2014/2/27 2:06,2.2,4,2.2,3,3.7,3
2014/2/27 2:07,2.2,4,2.2,3,3.8,4
2014/2/27 2:08,2.2,4,2.2,3,4.9,3
2014/2/27 2:09,2.4,3,2.4,3,5.2,3
2014/2/27 2:10,2.4,3,2.4,3,4.2,4
2014/2/27 2:11,2.6,3,2.6,4,4.7,3
2014/2/27 2:12,2.7,3,2.7,3,4.5,3
2014/2/27 2:13,2.8,3,2.8,3,4.2,3
2014/2/27 2:14,2.8,3,2.9,3,3.2,4
2014/2/27 2:15,2.8,3,2.8,3,3.7,3
2014/2/27 2:16,2.7,3,2.8,3,3.3,4
2014/2/27 2:17,2.7,3,2.7,3,3.9,3
2014/2/27 2:18,2.7,3,2.7,3,3.9,3
2014/2/27 2:19,2.6,3,2.6,3,4.5,3
2014/2/27 2:20,2.7,3,2.7,3,3.6,3
2014/2/27 2:21,2.6,3,2.7,3,3.7,3
2014/2/27 2:22,2.5,3,2.6,3,3.6,3
2014/2/27 2:23,2.5,3,2.5,3,3.5,3
2014/2/27 2:24,2.6,3,2.6,3,3.6,3
2014/2/27 2:25,2.7,3,2.7,3,3.7,4
2014/2/27 2:26,2.7,3,2.7,3,3.8,4
2014/2/27 2:27,2.6,3,2.7,3,3.5,3
2014/2/27 2:28,2.6,3,2.6,3,4.5,3
2014/2/27 2:29,2.6,3,2.6,3,5,5
2014/2/27 2:30,2.6,3,2.7,3,4.4,3
2014/2/27 2:31,2.7,3,2.7,3,4.2,4
2014/2/27 2:32,2.8,3,2.8,3,3.7,3
2014/2/27 2:33,2.8,3,2.8,3,3.9,2
2014/2/27 2:34,2.8,3,2.8,3,3.8,3
2014/2/27 2:35,2.8,3,2.8,3,4.3,5
2014/2/27 2:36,2.8,3,2.8,3,4.9,3
2014/2/27 2:37,2.9,3,2.9,3,4.7,3
2014/2/27 2:38,3,3,3,3,4.2,2
2014/2/27 2:39,2.8,3,3,3,4.4,3
2014/2/27 2:40,2.8,3,2.8,3,4.1,1
2014/2/27 2:41,2.8,3,2.8,3,4.5,3
2014/2/27 2:42,2.8,3,2.8,3,4.9,3
2014/2/27 2:43,2.9,3,2.9,3,5.1,3
2014/2/27 2:44,3,3,3,3,4.4,3
2014/2/27 2:45,3,3,3,3,4.9,3
2014/2/27 2:46,2.9,2,3,3,4.9,2
2014/2/27 2:47,3,2,3,3,4.8,3
2014/2/27 2:48,3,2,3,3,4.5,3
2014/2/27 2:49,3.1,2,3.1,2,4.2,3
2014/2/27 2:50,3.2,2,3.2,2,4.5,2
2014/2/27 2:51,3.2,2,3.2,2,4.5,3
2014/2/27 2:52,3.3,2,3.3,2,5.8,3
2014/2/27 2:53,3.2,2,3.3,2,5.5,3
2014/2/27 2:54,3.3,2,3.3,2,4.4,3
2014/2/27 2:55,3.2,2,3.3,2,4.1,2
2014/2/27 2:56,3.2,3,3.3,2,4.2,4
2014/2/27 2:57,3.1,2,3.2,2,4.7,3
2014/2/27 2:58,3,2,3.1,2,3.7,3
2014/2/27 2:59,2.9,2,2.9,2,3.1,1
2014/2/27 3:00,2.8,2,2.9,2,4.9,3
2014/2/27 3:01,2.8,2,2.9,2,5.1,3
2014/2/27 3:02,2.7,2,2.8,3,4.4,2
2014/2/27 3:03,2.6,2,2.7,2,4.7,3
2014/2/27 3:04,2.5,2,2.6,2,3.7,2
2014/2/27 3:05,2.6,2,2.6,2,5.1,2
2014/2/27 3:06,2.6,2,2.6,3,4.3,3
2014/2/27 3:07,2.7,2,2.7,2,5.2,3
2014/2/27 3:08,2.8,2,2.8,2,3.8,3
2014/2/27 3:09,2.9,2,2.9,2,3.2,2
2014/2/27 3:10,2.8,2,2.9,2,5,3
2014/2/27 3:11,2.9,2,2.9,2,4.5,2
2014/2/27 3:12,3,3,3,2,5,3
2014/2/27 3:13,2.9,2,3,2,4.8,3
2014/2/27 3:14,3,3,3,2,4.8,2
2014/2/27 3:15,3,3,3,2,4.2,3
2014/2/27 3:16,3.1,3,3.1,3,5,3
2014/2/27 3:17,3,2,3.1,3,4.8,3
2014/2/27 3:18,2.9,2,3,3,5,3
2014/2/27 3:19,2.9,2,2.9,3,3.6,2
2014/2/27 3:20,2.8,2,2.9,3,5,3
2014/2/27 3:21,2.7,3,2.8,3,4.8,3
2014/2/27 3:22,2.6,2,2.6,3,4.7,3
2014/2/27 3:23,2.7,3,2.7,3,5.2,3
2014/2/27 3:24,2.8,3,2.8,3,4.8,2
2014/2/27 3:25,2.8,3,2.8,3,5.8,3
2014/2/27 3:26,2.8,3,2.8,3,6,2
2014/2/27 3:27,2.8,3,2.8,2,5.2,3
2014/2/27 3:28,2.9,3,2.9,2,5,3
2014/2/27 3:29,3,3,3,3,5.2,3
2014/2/27 3:30,3.1,3,3.1,3,4.3,3
2014/2/27 3:31,3.2,3,3.2,3,4.1,2
2014/2/27 3:32,3.3,3,3.3,3,4.3,3
2014/2/27 3:33,3.3,3,3.3,3,5.1,3
2014/2/27 3:34,3.2,3,3.3,3,4.3,3
2014/2/27 3:35,3.3,3,3.3,3,4.9,3
2014/2/27 3:36,3.3,3,3.3,3,5,3
2014/2/27 3:37,3.3,3,3.3,3,4.5,3
2014/2/27 3:38,3.2,3,3.3,3,5.1,2
2014/2/27 3:39,3.2,3,3.2,3,5,1
2014/2/27 3:40,3.3,3,3.3,3,5.2,3
2014/2/27 3:41,3.2,2,3.3,3,4.4,3
2014/2/27 3:42,3.3,2,3.3,3,5.1,3
2014/2/27 3:43,3.2,2,3.3,3,4.8,2
2014/2/27 3:44,3.2,2,3.2,3,6.2,2
2014/2/27 3:45,3.1,2,3.2,3,3.9,3
2014/2/27 3:46,3,2,3.1,3,5,3
2014/2/27 3:47,3,2,3,3,3.3,3
2014/2/27 3:48,3,2,3,3,4.8,3
2014/2/27 3:49,3.1,2,3.1,3,5.5,2
2014/2/27 3:50,3.2,2,3.2,3,6.1,3
2014/2/27 3:51,3.2,2,3.2,2,6.7,2
2014/2/27 3:52,3.3,2,3.3,2,6.3,3
2014/2/27 3:53,3.5,3,3.5,3,5.8,4
2014/2/27 3:54,3.4,3,3.4,3,4.2,3
2014/2/27 3:55,3.5,3,3.5,3,4.9,3
2014/2/27 3:56,3.5,3,3.5,3,5,3
2014/2/27 3:57,3.6,3,3.6,3,5.2,3
2014/2/27 3:58,3.5,3,3.7,3,4.2,3
2014/2/27 3:59,3.4,3,3.5,3,4.7,2
2014/2/27 4:00,3.4,2,3.4,3,5.5,3
2014/2/27 4:01,3.3,3,3.4,3,4.3,3
2014/2/27 4:02,3.1,3,3.3,3,3.3,2
2014/2/27 4:03,2.9,2,3.1,3,2.9,3
2014/2/27 4:04,2.7,2,2.9,3,2.9,2
2014/2/27 4:05,2.6,2,2.7,3,3.7,2
2014/2/27 4:06,2.6,2,2.7,3,5.4,2
2014/2/27 4:07,2.4,2,2.6,3,3.7,3
2014/2/27 4:08,2.4,2,2.4,3,4.9,3
2014/2/27 4:09,2.5,2,2.5,3,4.7,3
2014/2/27 4:10,2.4,2,2.5,3,5,2
2014/2/27 4:11,2.4,2,2.4,3,5.1,3
2014/2/27 4:12,2.5,2,2.5,3,4.9,3
2014/2/27 4:13,2.5,2,2.5,2,3.7,1
2014/2/27 4:14,2.6,2,2.6,2,3.7,1
2014/2/27 4:15,2.7,2,2.7,2,5.2,3
2014/2/27 4:16,2.7,2,2.7,2,4.9,3
2014/2/27 4:17,2.7,2,2.7,2,3.3,2
2014/2/27 4:18,2.7,2,2.7,2,4.4,3
2014/2/27 4:19,2.7,2,2.7,2,4.7,3
2014/2/27 4:20,2.7,2,2.7,2,4.4,3
2014/2/27 4:21,2.7,2,2.7,2,5.2,1
2014/2/27 4:22,2.8,2,2.8,2,4.5,1
2014/2/27 4:23,2.8,2,2.8,2,4.8,1
2014/2/27 4:24,2.8,2,2.9,2,4.4,2
2014/2/27 4:25,2.7,2,2.9,2,3.7,16
2014/2/27 4:26,2.7,2,2.7,2,5,4
2014/2/27 4:27,2.8,2,2.8,2,6.1,3
2014/2/27 4:28,2.9,2,2.9,2,4.9,3
2014/2/27 4:29,2.8,2,2.9,2,3.8,2
2014/2/27 4:30,2.8,2,2.8,2,4.2,2
2014/2/27 4:31,2.6,2,2.7,2,3.7,2
2014/2/27 4:32,2.5,2,2.6,2,3.7,4
2014/2/27 4:33,2.6,2,2.6,2,4.7,2
2014/2/27 4:34,2.6,2,2.6,2,4.4,3
2014/2/27 4:35,2.7,2,2.7,2,5.5,3
2014/2/27 4:36,2.8,2,2.8,2,4.8,2
2014/2/27 4:37,2.8,2,2.9,2,4.9,4
2014/2/27 4:38,2.8,2,2.8,2,5.7,3
2014/2/27 4:39,3,2,3,2,5.5,3
2014/2/27 4:40,3,3,3,2,5.1,2
2014/2/27 4:41,3.1,3,3.1,3,5.5,2
2014/2/27 4:42,3.3,3,3.3,3,5,3
2014/2/27 4:43,3.3,3,3.3,3,6,3
2014/2/27 4:44,3.4,3,3.4,3,5,3
2014/2/27 4:45,3.4,3,3.4,3,7.6,3
2014/2/27 4:46,3.5,3,3.5,3,5.8,3
2014/2/27 4:47,3.5,2,3.5,3,5.5,2
2014/2/27 4:48,3.6,2,3.6,2,5.8,3
2014/2/27 4:49,3.6,2,3.6,2,5.7,3
2014/2/27 4:50,3.6,2,3.7,2,6,3
2014/2/27 4:51,3.8,3,3.8,2,6,3
2014/2/27 4:52,3.7,3,3.8,2,4.9,3
2014/2/27 4:53,3.8,3,3.8,2,5.5,3
2014/2/27 4:54,3.7,3,3.8,2,5.1,3
2014/2/27 4:55,3.7,3,3.8,2,5.5,2
2014/2/27 4:56,3.6,2,3.7,2,6,1
2014/2/27 4:57,3.6,3,3.6,2,4.5,3
2014/2/27 4:58,3.6,3,3.6,2,5.4,4
2014/2/27 4:59,3.6,3,3.6,2,4.9,3
2014/2/27 5:00,3.5,3,3.6,2,4.2,4
2014/2/27 5:01,3.3,3,3.4,3,3.5,3
2014/2/27 5:02,3.2,2,3.2,3,4.2,3
2014/2/27 5:03,3.2,2,3.2,3,6.1,3
2014/2/27 5:04,3.2,2,3.2,3,4.7,2
2014/2/27 5:05,3.1,2,3.2,3,5.5,1
2014/2/27 5:06,3,2,3.1,2,5,2
2014/2/27 5:07,3.1,2,3.1,3,4.7,3
2014/2/27 5:08,3,2,3.1,3,5.2,3
2014/2/27 5:09,2.8,2,2.9,3,4.2,2
2014/2/27 5:10,2.7,2,2.8,3,3.6,2
2014/2/27 5:11,2.8,2,2.8,3,5,2
2014/2/27 5:12,2.9,2,2.9,2,5.4,2
2014/2/27 5:13,2.8,2,2.9,2,4.1,3
2014/2/27 5:14,2.7,2,2.8,2,4.3,4
2014/2/27 5:15,2.8,2,2.8,2,6.1,3
2014/2/27 5:16,2.9,2,2.9,2,5.8,3
2014/2/27 5:17,2.9,2,2.9,2,6.3,3
2014/2/27 5:18,3.1,3,3.1,2,5.7,4
2014/2/27 5:19,3.3,3,3.3,3,5.4,2
2014/2/27 5:20,3.5,3,3.5,3,5.6,3
2014/2/27 5:21,3.6,3,3.6,3,5.6,3
2014/2/27 5:22,3.6,3,3.6,3,4.9,3
2014/2/27 5:23,3.9,3,3.9,3,7.6,2
2014/2/27 5:24,4.2,3,4.2,3,9,3
2014/2/27 5:25,4.1,3,4.2,3,5.8,3
2014/2/27 5:26,4.1,3,4.1,3,5.7,2
2014/2/27 5:27,4,3,4.1,3,5.5,3
2014/2/27 5:28,4,3,4,3,6.3,3
2014/2/27 5:29,3.9,3,4,3,5.6,4
2014/2/27 5:30,3.8,3,3.9,3,5.1,4
2014/2/27 5:31,3.8,3,3.8,3,5.1,3
2014/2/27 5:32,3.8,3,3.8,3,5,3
2014/2/27 5:33,3.6,3,3.8,3,4.7,3
2014/2/27 5:34,3.3,3,3.6,3,3.2,4
2014/2/27 5:35,3.2,3,3.2,3,5.5,3
2014/2/27 5:36,3.4,3,3.4,3,6.7,4
2014/2/27 5:37,3.6,3,3.6,3,6.7,3
2014/2/27 5:38,3.5,3,3.6,3,4.4,4
2014/2/27 5:39,3.6,3,3.6,3,6.4,3
2014/2/27 5:40,3.7,3,3.7,3,6.4,4
2014/2/27 5:41,3.8,3,3.8,3,6.2,3
2014/2/27 5:42,3.9,3,3.9,3,5.8,3
2014/2/27 5:43,3.9,3,4,3,6,3
2014/2/27 5:44,4.1,3,4.1,3,6,3
2014/2/27 5:45,4.1,3,4.1,3,4.4,3
2014/2/27 5:46,3.8,3,4,3,3.5,1
2014/2/27 5:47,3.7,3,3.8,3,6.3,4
2014/2/27 5:48,3.9,3,3.9,3,7,3
2014/2/27 5:49,3.8,3,3.9,3,6.3,3
2014/2/27 5:50,3.7,3,3.8,3,5.2,4
2014/2/27 5:51,3.6,3,3.7,3,5.5,3
2014/2/27 5:52,3.4,3,3.6,3,4.4,5
2014/2/27 5:53,3.4,3,3.4,3,4.4,3
2014/2/27 5:54,3.3,3,3.3,3,5.6,2
2014/2/27 5:55,3.3,3,3.3,3,5.5,5
2014/2/27 5:56,3.5,3,3.5,3,4.4,3
2014/2/27 5:57,3.3,3,3.5,3,3.8,3
2014/2/27 5:58,3.1,3,3.3,3,5.2,4
2014/2/27 5:59,3,3,3.2,3,3.3,3
2014/2/27 6:00,3.1,3,3.1,3,7,3
2014/2/27 6:01,3.3,3,3.3,3,6.7,3
2014/2/27 6:02,3.5,3,3.5,3,6.1,3
2014/2/27 6:03,3.6,3,3.6,3,4.7,4
2014/2/27 6:04,3.6,3,3.6,3,4.2,3
2014/2/27 6:05,3.6,3,3.6,3,4.7,2
2014/2/27 6:06,3.5,3,3.6,3,4.2,3
2014/2/27 6:07,3.5,3,3.6,3,4.4,4
2014/2/27 6:08,3.5,3,3.6,3,4.8,3
2014/2/27 6:09,3.6,3,3.6,3,3.8,3
2014/2/27 6:10,3.4,3,3.6,3,4.7,3
2014/2/27 6:11,3.1,3,3.4,3,3.9,3
2014/2/27 6:12,2.9,3,3.1,3,3.9,3
2014/2/27 6:13,2.8,3,2.9,3,4.4,2
2014/2/27 6:14,3,3,3,3,8.6,3
2014/2/27 6:15,3,3,3,3,6,3
2014/2/27 6:16,3.2,3,3.2,3,6.3,2
2014/2/27 6:17,3.4,3,3.4,3,7.7,4
2014/2/27 6:18,3.4,3,3.4,3,4.2,3
2014/2/27 6:19,3.5,3,3.5,3,5.4,3
2014/2/27 6:20,3.5,3,3.5,3,4.7,3
2014/2/27 6:21,3.7,3,3.7,3,5.2,4
2014/2/27 6:22,3.7,3,3.7,3,4.8,3
2014/2/27 6:23,3.8,3,3.8,3,4.9,5
2014/2/27 6:24,3.5,3,3.8,3,3.3,4
2014/2/27 6:25,3.5,3,3.6,3,4.5,3
2014/2/27 6:26,3.3,3,3.5,3,4.1,3
2014/2/27 6:27,3.1,3,3.3,3,4.2,3
2014/2/27 6:28,3.1,3,3.1,3,4.8,3
2014/2/27 6:29,3,3,3.1,3,3.5,3
2014/2/27 6:30,2.9,3,3,3,5,2
2014/2/27 6:31,3,3,3,3,5.2,2
2014/2/27 6:32,3.1,3,3.1,3,5.1,3
2014/2/27 6:33,3.1,3,3.1,3,5.4,3
2014/2/27 6:34,3.2,3,3.2,3,5.4,3
2014/2/27 6:35,3.2,3,3.2,3,4.9,3
2014/2/27 6:36,3.2,3,3.2,3,5.2,3
2014/2/27 6:37,3.2,3,3.2,3,5.8,3
2014/2/27 6:38,3.3,2,3.3,2,4.8,3
2014/2/27 6:39,3.4,2,3.4,2,5.2,3
2014/2/27 6:40,3.4,2,3.4,2,5.1,3
2014/2/27 6:41,3.3,2,3.4,2,4.8,3
2014/2/27 6:42,3.3,2,3.3,2,5.8,2
2014/2/27 6:43,3.3,2,3.3,2,5,3
2014/2/27 6:44,3.2,2,3.3,2,5.8,2
2014/2/27 6:45,3.2,2,3.2,2,3.7,2
2014/2/27 6:46,3.2,2,3.2,2,5.1,3
2014/2/27 6:47,3.3,2,3.3,2,6.1,3
2014/2/27 6:48,3.3,2,3.3,2,6,3
2014/2/27 6:49,3.5,2,3.5,2,6.5,3
2014/2/27 6:50,3.6,3,3.6,2,5.8,3
2014/2/27 6:51,3.7,3,3.7,3,6,5
2014/2/27 6:52,3.6,3,3.7,3,4.8,3
2014/2/27 6:53,3.5,3,3.6,3,4.8,2
2014/2/27 6:54,3.5,3,3.6,3,4.7,4
2014/2/27 6:55,3.5,3,3.5,3,3.9,3
2014/2/27 6:56,3.5,3,3.5,3,6.3,4
2014/2/27 6:57,3.4,3,3.5,3,5.1,5
2014/2/27 6:58,3.4,3,3.4,3,4.4,3
2014/2/27 6:59,3.1,4,3.4,3,3.5,3
2014/2/27 7:00,2.9,4,3.1,3,3.3,3
2014/2/27 7:01,2.7,3,2.9,3,3.1,4
2014/2/27 7:02,2.6,3,2.7,3,3,3
2014/2/27 7:03,2.5,3,2.6,3,3.2,3
2014/2/27 7:04,2.6,3,2.6,3,4.1,2
2014/2/27 7:05,2.6,3,2.6,3,3.7,3
2014/2/27 7:06,2.5,3,2.6,3,3.3,3
2014/2/27 7:07,2.5,3,2.5,3,4.1,3
2014/2/27 7:08,2.5,3,2.5,3,5.8,3
2014/2/27 7:09,2.6,3,2.6,4,5.5,2
2014/2/27 7:10,2.7,3,2.7,4,5.8,3
2014/2/27 7:11,2.8,3,2.8,3,7,3
2014/2/27 7:12,3,3,3,3,4.8,2
2014/2/27 7:13,3.2,3,3.2,3,6.5,3
2014/2/27 7:14,3.2,2,3.3,3,5.2,2
2014/2/27 7:15,3.3,2,3.3,3,6.1,3
2014/2/27 7:16,3.5,3,3.5,3,5,4
2014/2/27 7:17,3.6,3,3.6,3,5.1,3
2014/2/27 7:18,3.7,3,3.7,3,6.7,4
2014/2/27 7:19,3.6,3,3.7,3,5.4,3
2014/2/27 7:20,3.6,3,3.6,3,4.3,2
2014/2/27 7:21,3.7,3,3.7,3,5.6,4
2014/2/27 7:22,3.6,3,3.7,3,5,4
2014/2/27 7:23,3.5,3,3.6,3,4.1,4
2014/2/27 7:24,3.3,3,3.4,3,3.8,3
2014/2/27 7:25,3.3,3,3.3,3,6.5,3
2014/2/27 7:26,3.3,3,3.3,3,6.5,3
2014/2/27 7:27,3.2,3,3.3,3,4.3,4
2014/2/27 7:28,3.1,3,3.2,3,5.6,2
2014/2/27 7:29,3.2,3,3.2,3,6.5,3
2014/2/27 7:30,3.2,2,3.2,3,5.6,3
2014/2/27 7:31,3.1,2,3.2,3,4.2,1
2014/2/27 7:32,3.2,2,3.2,3,6.1,3
2014/2/27 7:33,3.4,2,3.4,3,6.7,3
2014/2/27 7:34,3.6,2,3.6,2,6.7,3
2014/2/27 7:35,3.6,2,3.7,2,5.6,3
2014/2/27 7:36,3.6,2,3.7,2,6.9,3
2014/2/27 7:37,3.7,2,3.7,2,5.5,3
2014/2/27 7:38,3.8,3,3.8,3,6.1,3
2014/2/27 7:39,3.6,2,3.7,3,5.1,3
2014/2/27 7:40,3.7,3,3.8,3,6.9,3
2014/2/27 7:41,3.9,3,3.9,3,6.3,3
2014/2/27 7:42,3.8,3,3.9,3,5.7,2
2014/2/27 7:43,3.7,3,3.8,3,4.8,3
2014/2/27 7:44,3.5,3,3.6,3,5.4,3
2014/2/27 7:45,3.5,3,3.5,3,6.4,3
2014/2/27 7:46,3.5,3,3.5,3,6.4,3
2014/2/27 7:47,3.6,3,3.6,3,5.7,4
2014/2/27 7:48,3.5,3,3.6,3,4.9,3
2014/2/27 7:49,3.5,3,3.6,3,5.2,2
2014/2/27 7:50,3.4,3,3.5,3,5.2,3
2014/2/27 7:51,3.3,3,3.4,3,5.5,3
2014/2/27 7:52,3.4,3,3.4,3,6.2,4
2014/2/27 7:53,3.5,3,3.5,3,5.6,3
2014/2/27 7:54,3.6,3,3.6,3,5.5,3
2014/2/27 7:55,3.5,2,3.6,3,4.7,1
2014/2/27 7:56,3.6,2,3.6,3,7.1,3
2014/2/27 7:57,3.6,2,3.6,3,6.8,3
2014/2/27 7:58,3.6,2,3.6,3,6.5,2
2014/2/27 7:59,3.6,2,3.6,3,6.7,3
2014/2/27 8:00,3.6,2,3.6,3,3.6,3
2014/2/27 8:01,3.5,2,3.6,3,3.6,3
2014/2/27 8:02,3.4,2,3.5,3,3.8,3
2014/2/27 8:03,3.2,2,3.4,3,3,3
2014/2/27 8:04,3,2,3.2,3,3.9,2
2014/2/27 8:05,3,2,3,2,3.9,3
2014/2/27 8:06,2.8,2,3,2,4.3,1
2014/2/27 8:07,2.8,2,2.8,2,5.7,3
2014/2/27 8:08,3,2,3,2,6.8,3
2014/2/27 8:09,3,2,3,2,4.9,4
2014/2/27 8:10,3.1,3,3.1,2,5.8,3
2014/2/27 8:11,3.1,3,3.1,2,4.9,3
2014/2/27 8:12,3.2,3,3.2,2,5.4,2
2014/2/27 8:13,3.4,3,3.4,3,5.1,3
2014/2/27 8:14,3.5,3,3.5,3,4.1,4
2014/2/27 8:15,3.5,3,3.5,3,3.8,3
2014/2/27 8:16,3.6,3,3.6,3,6.4,3
2014/2/27 8:17,3.6,3,3.7,3,5.8,3
2014/2/27 8:18,3.5,3,3.6,3,5.4,3
2014/2/27 8:19,3.4,3,3.5,3,5.4,3
2014/2/27 8:20,3.4,3,3.4,3,6.8,3
2014/2/27 8:21,3.6,3,3.6,3,6.4,4
2014/2/27 8:22,3.6,3,3.7,3,7.4,3
2014/2/27 8:23,3.5,3,3.6,3,4.8,3
2014/2/27 8:24,3.6,3,3.6,3,5.5,4
2014/2/27 8:25,3.7,3,3.7,3,4.7,4
2014/2/27 8:26,3.5,3,3.6,3,3.2,3
2014/2/27 8:27,3.4,3,3.5,3,5.8,3
2014/2/27 8:28,3.4,3,3.4,3,5.2,3
2014/2/27 8:29,3.4,3,3.4,3,4.8,4
2014/2/27 8:30,3.3,3,3.4,3,3.9,16
2014/2/27 8:31,3.1,3,3.2,3,4.5,3
2014/2/27 8:32,3.1,3,3.2,3,5.7,2
2014/2/27 8:33,3.2,3,3.2,3,5.2,3
2014/2/27 8:34,3.1,3,3.2,3,4.1,2
2014/2/27 8:35,3.2,3,3.2,3,5.1,3
2014/2/27 8:36,3.3,3,3.3,3,4.7,3
2014/2/27 8:37,3.3,3,3.3,3,4.4,2
2014/2/27 8:38,3.3,3,3.3,3,6.3,3
2014/2/27 8:39,3.3,2,3.3,3,7.2,2
2014/2/27 8:40,3.4,2,3.5,2,6,2
2014/2/27 8:41,3.5,2,3.5,2,5.2,3
2014/2/27 8:42,3.3,2,3.5,2,3.8,2
2014/2/27 8:43,3.2,2,3.3,2,4.9,3
2014/2/27 8:44,3.2,2,3.3,2,5.4,3
2014/2/27 8:45,3.1,2,3.2,2,3.9,3
2014/2/27 8:46,3,2,3.1,2,3.5,1
2014/2/27 8:47,3,2,3,2,4.7,3
2014/2/27 8:48,2.9,2,3,2,6,4
2014/2/27 8:49,2.9,2,2.9,2,5.6,3
2014/2/27 8:50,3,2,3,3,7.8,3
2014/2/27 8:51,3.1,2,3.1,2,5.8,3
2014/2/27 8:52,3.2,2,3.2,2,3.8,3
2014/2/27 8:53,3.2,2,3.2,2,7.2,3
2014/2/27 8:54,3.4,2,3.4,2,6.7,3
2014/2/27 8:55,3.5,2,3.5,2,5.5,3
2014/2/27 8:56,3.6,3,3.7,3,5.2,3
2014/2/27 8:57,3.7,3,3.7,3,5.6,2
2014/2/27 8:58,3.8,3,3.9,3,6.2,2
2014/2/27 8:59,3.8,3,3.8,3,5.7,2
2014/2/27 9:00,3.8,3,3.8,3,5.7,3
2014/2/27 9:01,3.6,3,3.8,3,4.9,3
2014/2/27 9:02,3.8,3,3.8,3,5.5,3
2014/2/27 9:03,3.9,3,4,3,5.6,4
2014/2/27 9:04,3.7,3,3.9,3,4.1,3
2014/2/27 9:05,3.5,2,3.6,3,3.8,2
2014/2/27 9:06,3.5,2,3.5,3,4.7,2
2014/2/27 9:07,3.3,2,3.4,3,3.9,3
2014/2/27 9:08,3.2,2,3.3,3,4.4,4
2014/2/27 9:09,3.2,2,3.3,3,4.9,3
2014/2/27 9:10,3.1,2,3.2,3,6.1,3
2014/2/27 9:11,3.1,2,3.1,3,6.3,2
2014/2/27 9:12,3.1,2,3.1,3,5.5,3
2014/2/27 9:13,3,2,3.1,3,5,1
2014/2/27 9:14,3,2,3,3,5.4,3
2014/2/27 9:15,3.1,2,3.1,2,5,1
2014/2/27 9:16,3.1,2,3.2,2,6.2,3
2014/2/27 9:17,3.3,2,3.3,2,6.8,3
2014/2/27 9:18,3.5,2,3.5,2,6.7,3
2014/2/27 9:19,3.4,2,3.4,2,4.4,2
2014/2/27 9:20,3.3,2,3.4,2,5.4,2
2014/2/27 9:21,3.3,2,3.3,2,4.9,3
2014/2/27 9:22,3.3,2,3.4,2,7.1,3
2014/2/27 9:23,3.6,2,3.6,2,6.9,3
2014/2/27 9:24,3.7,2,3.7,2,5.5,2
2014/2/27 9:25,3.7,3,3.7,2,6,2
2014/2/27 9:26,3.9,3,3.9,3,6.4,3
2014/2/27 9:27,3.8,3,3.9,3,5.1,4
2014/2/27 9:28,3.7,3,3.8,3,4.3,2
2014/2/27 9:29,3.8,3,3.8,3,5.4,3
2014/2/27 9:30,3.8,3,3.8,3,3.9,3
2014/2/27 9:31,3.7,3,3.8,3,4.3,4
2014/2/27 9:32,3.6,3,3.7,3,5.4,3
2014/2/27 9:33,3.4,3,3.6,3,5.1,4
2014/2/27 9:34,3.4,3,3.4,3,5.1,3
2014/2/27 9:35,3.3,3,3.4,3,4.5,3
2014/2/27 9:36,3.1,3,3.3,3,4.7,3
2014/2/27 9:37,3.1,3,3.1,3,5.1,4
2014/2/27 9:38,3.2,3,3.2,3,6.8,2
2014/2/27 9:39,3.3,3,3.3,3,6.1,2
2014/2/27 9:40,3.5,3,3.5,3,6.8,3
2014/2/27 9:41,3.6,3,3.6,3,6.4,3
2014/2/27 9:42,3.7,3,3.7,3,5.2,3
2014/2/27 9:43,3.8,3,3.8,3,5,3
2014/2/27 9:44,3.7,3,3.8,3,5.5,4
2014/2/27 9:45,3.8,3,3.8,3,6.1,3
2014/2/27 9:46,3.9,3,3.9,3,6.2,3
2014/2/27 9:47,3.9,3,3.9,3,5.8,2
2014/2/27 9:48,3.8,3,3.9,3,6.2,3
2014/2/27 9:49,3.6,3,3.8,3,5.4,2
2014/2/27 9:50,3.5,3,3.6,3,5.4,3
2014/2/27 9:51,3.3,3,3.5,3,4.1,3
2014/2/27 9:52,3.1,3,3.3,3,4.3,3
2014/2/27 9:53,3,3,3.1,3,3.8,2
2014/2/27 9:54,2.9,2,3,3,6.1,1
2014/2/27 9:55,2.8,2,2.9,3,4.9,2
2014/2/27 9:56,2.8,2,2.8,3,7,3
2014/2/27 9:57,2.9,3,2.9,3,6,4
2014/2/27 9:58,3,3,3.1,3,5.6,3
2014/2/27 9:59,3,2,3.1,3,4.4,2
2014/2/27 10:00,2.9,2,3,3,5.6,2
2014/2/27 10:01,3,2,3,3,4.7,3
2014/2/27 10:02,3,2,3,3,5,2
2014/2/27 10:03,3.2,2,3.2,2,6.2,2
2014/2/27 10:04,3.3,2,3.3,2,5.6,3
2014/2/27 10:05,3.5,2,3.5,2,7.9,3
2014/2/27 10:06,3.6,2,3.7,2,7.4,3
2014/2/27 10:07,3.5,2,3.6,2,4.2,3
2014/2/27 10:08,3.3,2,3.5,2,4.7,3
2014/2/27 10:09,3.4,3,3.4,2,5.7,4
2014/2/27 10:10,3.6,3,3.6,2,5.1,3
2014/2/27 10:11,3.6,3,3.6,2,4.3,3
2014/2/27 10:12,3.6,3,3.6,2,4.7,3
2014/2/27 10:13,3.7,3,3.7,2,5.5,3
2014/2/27 10:14,3.7,3,3.7,2,5.7,3
2014/2/27 10:15,3.7,3,3.8,3,6.1,3
2014/2/27 10:16,3.5,3,3.6,3,5.7,1
2014/2/27 10:17,3.6,3,3.6,3,6.4,2
2014/2/27 10:18,3.9,3,3.9,3,6,3
2014/2/27 10:19,3.7,3,3.9,3,6.1,2
2014/2/27 10:20,3.8,2,3.8,3,6.9,2
2014/2/27 10:21,3.8,2,3.8,3,7.1,3
2014/2/27 10:22,3.9,2,3.9,3,6.4,3
2014/2/27 10:23,3.9,2,3.9,3,6.1,3
2014/2/27 10:24,3.9,2,4,2,6.1,3
2014/2/27 10:25,4,3,4,2,6.1,3
2014/2/27 10:26,4.1,3,4.1,3,5.1,3
2014/2/27 10:27,4,3,4.1,3,5.2,2
2014/2/27 10:28,4,3,4,3,6.4,3
2014/2/27 10:29,4,3,4,3,5.2,3
2014/2/27 10:30,3.9,3,4,3,5,3
2014/2/27 10:31,3.7,3,3.8,3,4.3,3
2014/2/27 10:32,3.7,3,3.7,3,4.2,3
2014/2/27 10:33,3.4,3,3.6,3,3.5,2
2014/2/27 10:34,3.2,3,3.4,3,4.9,3
2014/2/27 10:35,3,2,3.2,3,4.9,3
2014/2/27 10:36,2.9,2,3,3,4.4,3
2014/2/27 10:37,2.9,2,2.9,3,5,3
2014/2/27 10:38,2.8,2,2.9,3,5.1,2
2014/2/27 10:39,2.7,2,2.8,3,4.3,3
2014/2/27 10:40,2.8,2,2.8,3,5,3
2014/2/27 10:41,2.9,2,2.9,3,6.1,4
2014/2/27 10:42,3.1,2,3.1,3,6.7,2
2014/2/27 10:43,3.5,3,3.5,3,8.7,4
2014/2/27 10:44,3.6,3,3.7,3,6.1,3
2014/2/27 10:45,3.7,3,3.7,3,5.8,2
2014/2/27 10:46,3.9,3,3.9,3,6,3
2014/2/27 10:47,3.7,3,3.9,3,4.2,4
2014/2/27 10:48,3.7,3,3.7,3,5.4,3
2014/2/27 10:49,3.7,2,3.7,3,5.4,2
2014/2/27 10:50,3.8,2,3.8,3,5.1,3
2014/2/27 10:51,3.7,2,3.8,3,4.7,3
2014/2/27 10:52,3.6,2,3.6,3,5,4
2014/2/27 10:53,3.2,2,3.6,3,4.9,3
2014/2/27 10:54,3.1,2,3.1,3,6.3,2
2014/2/27 10:55,3,2,3.1,3,5.1,2
2014/2/27 10:56,2.9,2,3,3,4.2,5
2014/2/27 10:57,3,2,3,3,3.8,4
2014/2/27 10:58,2.9,2,3,3,3,4
2014/2/27 10:59,2.8,3,2.9,3,4.3,3
2014/2/27 11:00,2.8,3,2.9,2,6.2,3
2014/2/27 11:01,2.7,3,2.7,2,3.8,4
2014/2/27 11:02,2.7,3,2.7,2,4.9,3
2014/2/27 11:03,2.7,3,2.7,2,4.2,3
2014/2/27 11:04,2.7,3,2.8,2,3.2,4
2014/2/27 11:05,2.8,3,2.8,2,7.1,2
2014/2/27 11:06,2.9,3,2.9,2,6.7,3
2014/2/27 11:07,3,3,3,2,6.1,3
2014/2/27 11:08,3.2,3,3.2,3,7.8,2
2014/2/27 11:09,3.5,3,3.5,3,7.4,3
2014/2/27 11:10,3.7,3,3.7,3,8.1,3
2014/2/27 11:11,3.8,3,3.8,3,4.9,4
2014/2/27 11:12,3.7,3,3.8,3,5.1,3
2014/2/27 11:13,3.8,3,3.8,3,5.2,2
2014/2/27 11:14,3.8,3,3.8,3,3.7,3
2014/2/27 11:15,3.6,3,3.8,3,3.1,2
2014/2/27 11:16,3.5,3,3.6,3,3.3,3
2014/2/27 11:17,3.3,3,3.5,3,3.6,3
2014/2/27 11:18,3.2,3,3.3,3,3.9,3
2014/2/27 11:19,3,3,3.1,3,4.1,3
2014/2/27 11:20,2.7,3,3,3,4.9,3
2014/2/27 11:21,2.7,3,2.7,3,4.2,3
2014/2/27 11:22,2.7,3,2.8,3,3.9,5
2014/2/27 11:23,2.6,3,2.6,3,4.1,2
2014/2/27 11:24,2.6,3,2.6,3,5.1,3
2014/2/27 11:25,2.6,3,2.6,3,3.7,2
2014/2/27 11:26,2.7,3,2.7,3,5.5,3
2014/2/27 11:27,2.8,3,2.8,3,6,3
2014/2/27 11:28,2.9,3,2.9,3,5.7,3
2014/2/27 11:29,3.1,3,3.1,3,5.6,4
2014/2/27 11:30,3.1,3,3.2,3,5,4
2014/2/27 11:31,3.2,3,3.2,3,5,3
2014/2/27 11:32,3.3,3,3.3,3,5.7,3
2014/2/27 11:33,3.3,3,3.3,3,5,3
2014/2/27 11:34,3.2,3,3.3,3,3.9,4
2014/2/27 11:35,3.3,3,3.3,3,4.2,4
2014/2/27 11:36,3.2,3,3.3,3,2.7,2
2014/2/27 11:37,3.2,3,3.2,3,4.8,3
2014/2/27 11:38,3,3,3.2,3,4.1,2
2014/2/27 11:39,2.8,3,3,3,3.3,2
2014/2/27 11:40,2.8,3,2.8,3,4.7,2
2014/2/27 11:41,2.8,3,2.8,3,5.1,3
2014/2/27 11:42,2.8,3,2.8,3,5.1,3
2014/2/27 11:43,2.9,3,2.9,3,6.3,2
2014/2/27 11:44,3.1,3,3.1,3,6.1,3
2014/2/27 11:45,3,3,3.1,3,4.7,3
2014/2/27 11:46,3.2,3,3.2,3,6.7,3
2014/2/27 11:47,3.1,3,3.1,3,4.2,3
2014/2/27 11:48,3.2,3,3.2,3,4.3,3
2014/2/27 11:49,3.3,3,3.4,3,5.8,3